THORAD DELTA 1 DEB, 42610

Orbit data source: Space-Track

THORAD DELTA 1 DEB, 42610 is space debris in SSO originally from a launch on Fri, 15 Nov 1974 UTC launched from the Air Force Western Test Range (AFWTR). Debris objects in space refer to the collection of defunct objects orbiting the Earth. Examples of debris include non-operational satellites, rocket bodies, and fragments generated from explosions, collisions, or faulty payload assembly.

Loading next visibility...
Identifier
42610, 1974-089GB
Orbit
SSO
Country
Flag of USUS
Related business
Manufacturer
Unknown
Mission
Spacecraft
Bus & Motor
Unknown
Mass
Unknown
Launch date (UTC)
1974-11-15 (51 years ago)
Launch vehicle
Unknown
Launch site
Air Force Western Test Range (AFWTR)
Object type
Payload
Rocket body
Debris
Shape & HBR
Unknown shape, 0.1 m
Radar Cross Section
Small (<0.1 m²)

Expand to show TLE details & history
Last TLE update: 3 days ago

TLE from 3 days ago
0 THORAD DELTA 1 DEB
1 42610U 74089GB  26092.86150037 -.00000055  00000-0 -94654-4 0  9994
2 42610 101.4081 324.0267 0078647 272.7756  86.4311 12.40361006559861
Epoch: 2026-04-02T20:40Z
TLE epoch observation values (Epoch: 2026-04-02T20:40:33.631Z)
Latitude
0.00001°
Longitude
-177.31734°
Altitude
1,504.272 km
Speed
7.114 km/s
True Right ascension
21h 36m 06s
True Declination
0° 00' 00"
Sunlit
Object was in daylight at epoch
Visualization orbit readout
Latitude
Unknown
Longitude
Unknown
Altitude
Unknown
Speed
Unknown
Apparent Right ascension
Unknown
Apparent Declination
Unknown
Sunlit
N/A
Visualization observer readout
Local Sidereal Time
03:00:37
Azimuth
Unknown
Elevation
Unknown
Doppler factor
Unknown
Orbital elements
Apogee altitude
1,564.593 km
Perigee altitude
1,440.633 km
Semi-major axis
7,880.75 km
Eccentricity
0.00786
Inclination
101.4081°
RAAN
324.0267°
Arg. of periapsis
272.7756°
True anomaly
87.33109°
Mean anomaly
86.4311°
Eccentric anomaly
86.88105°
Mean motion
3.10236 °/min
Orbital period
116.04 mins
BSTAR
-0.000094654
Loading maneuver chart data...
Computing Atmospheric mass density...

Documentation

Showing up to 5 results
|